Location: Unspecified
(0.0000°N, 0.0000°E)
Time: 06:12:28
(UTC+00:00)

Envisat - Pass Details

Date: 31 May 2019
Orbit: 764 x 766 km, 98.1° (Epoch: 15 September)

Event Time Altitude Azimuth Distance (km) Brightness Sun altitude
Rises 18:27:28 0° 156° (SSE) 3,228 5.8 -6.9°
Reaches altitude 10° 18:29:52 10° 149° (SSE) 2,300 5.0 -7.5°
Maximum altitude 18:34:41 44° 78° (ENE) 1,049 3.4 -8.6°
Drops below altitude 10° 18:39:27 10° 7° (N) 2,290 5.7 -9.7°
Sets 18:41:50 0° 0° (N) 3,213 6.5 -10.2°
